Rbgn^[z[y[W
メイン
   新天体発見情報
     Comet P/2017 U3 (PANSTARRS)
投稿するにはまず登録を

フラット表示 前のトピック | 次のトピック
投稿者 スレッド
佐藤裕久
投稿日時: 2017-11-29 23:28
モデレータ
登録日: 2005-6-12
居住地: 日本
投稿: 2505
オンライン
Comet P/2017 U3 (PANSTARRS)

R. Weryk (ハワイ大学天文学研究所)の通報によると、10月28.5日UT、Haleakalaにある1.8-m 
Pan-STARRS1望遠鏡で得た4枚のw-バンドCCD露出から彗星を発見した。
この天体はハッキリして、西に向かって約8"伸びたやや広い尾がある。頭部の半値全幅(FWHM)は
1".1 のシーイングで2".2であった。
E. Lilly (ハワイ大学天文学研究所)の書き込みでは、10月29.5日UT、Pan-STARRS1の追加画像では
p.a. 270°に向かっておよそ8".0伸びた尾が見えている。
小惑星センターのPCCP webpageに公表後、佐藤英貴氏(東京都文京区, iTelescope天文台,10月30.4日
60秒露出24枚のスタック, 0.43-m f/6.8 アストログラフ, Mayhill近郊, ニューメキシコ州, 遠隔
操作:強い集光のある6" のコマがあるが尾はない。5".7の円形範囲で測定したこの彗星のw-バンド
光度は20.3等であった)らCCD位置観測者によって彗星状と観測された。

発見位置は次のとおり、

     2017 UT             R.A. (2000) Decl.       Mag.
     Oct.  1.58111    3 24 40.50   + 2 07 46.6   21.7
           1.59280    3 24 40.34   + 2 07 43.4   21.6
          19.49809    3 18 42.19   + 0 45 23.3   20.2
          19.51136    3 18 41.84   + 0 45 19.2   20.6
          19.52470    3 18 41.50   + 0 45 15.8   20.6
          28.50417    3 14 31.17   + 0 06 39.7   21.7
          28.51617    3 14 30.80   + 0 06 36.8   21.8
          28.52812    3 14 30.44   + 0 06 33.8   21.8
          28.54005    3 14 30.10   + 0 06 31.0   21.7

楕円軌道要素と位置推算表は次のとおり、

Orbital elements:
    P/2017 U3 (PANSTARRS)
Epoch 2019 Apr. 27.0 TT = JDT 2458600.5
T 2019 Apr. 20.43499 TT                                 MPCW
q   4.4439311            (2000.0)            P               Q
n   0.08991224     Peri.  297.33509     -0.22426461     -0.97198078
a   4.9346554      Node   165.11126     +0.96260392     -0.23221065
e   0.0994445      Incl.   15.90614     +0.15198382     +0.03649068
P  10.96
From 48 observations 2017 Oct. 1-Nov. 12, mean residual 0".5.

    P/2017 U3 (PANSTARRS)
Epoch 2030 Apr. 9.0 TT = JDT 2462600.5
T 2030 Mar. 22.63625 TT                                 MPCW
q   4.4218683            (2000.0)            P               Q
n   0.09061135     Peri.  297.15859     -0.21948145     -0.97302909
a   4.9092405      Node   165.00151     +0.96374359     -0.22755588
e   0.0992765      Incl.   15.92536     +0.15174383     +0.03785119
P  10.88
From 48 observations 2017 Oct. 1-Nov. 12, mean residual 0".5.

    P/2017 U3 (PANSTARRS)
Epoch 2017 Sept. 4.0 TT = JDT 2458000.5
T 2019 Apr. 21.46900 TT                                 MPCW
q   4.4432022            (2000.0)            P               Q
n   0.08984751     Peri.  297.43552     -0.22642627     -0.97148873
a   4.9370252      Node   165.13908     +0.96209517     -0.23433069
e   0.1000244      Incl.   15.90639     +0.15200008     +0.03603856
P  10.97
From 48 observations 2017 Oct. 1-Nov. 12, mean residual 0".5.

Ephemeris:
    P/2017 U3 (PANSTARRS)
Date    TT    R. A. (2000) Decl.     Delta      r     Elong.  Phase   m1
2017 10 14    03 20 55.1 +01 10 23   3.7728  4.6502   148.2     6.5  20.6
...
2017 10 29    03 14 16.4 +00 04 40   3.6952  4.6402   159.8     4.2  20.5
...
2017 11 06    03 10 08.8 -00 25 45   3.6801  4.6350   162.5     3.7  20.5
...
2017 11 12    03 06 56.7 -00 45 24   3.6811  4.6311   161.6     3.9  20.5
2017 11 13    03 06 24.6 -00 48 23   3.6824  4.6304   161.2     3.9  20.5
2017 11 14    03 05 52.6 -00 51 16   3.6839  4.6298   160.8     4.0  20.5
...
2017 11 20    03 02 42.8 -01 06 32   3.6991  4.6259   157.2     4.7  20.5
...
2017 11 28    02 58 43.7 -01 21 04   3.7353  4.6208   150.7     6.0  20.5
...
2017 12 13    02 52 36.4 -01 29 14   3.8480  4.6114   136.4     8.5  20.6

(CBET 4452、MPEC 2017-V48)

フラット表示 前のトピック | 次のトピック

題名 投稿者 日時
 » Comet P/2017 U3 (PANSTARRS) 佐藤裕久 2017-11-29 23:28

投稿するにはまず登録を
 
© 1999 Tsutomu Seki.